FW5690 Weather Reports


Display with metric or nautical units.
time (UTC)temp
F
wind
direction
speed
MPH
gust
MPH
rain 1hr
in
rain 24hr
in
rain mn
in
humidity
%
barometer
mb
20191021121026 50 0 0.0 0.0 0.00 0.00 0.00 82 1020.9
20191021120520 50 0 0.0 0.0 0.00 0.00 0.00 82 1020.9
20191021120026 50 0 0.0 0.0 0.00 0.00 0.00 82 1020.9
20191021115519 50 0 0.0 0.0 0.00 0.00 0.00 82 1020.8
20191021115028 51 0 0.0 0.0 0.00 0.00 0.00 82 1020.8
20191021114613 51 0 0.0 0.0 0.00 0.00 0.00 82 1020.9
20191021114030 51 0 0.0 0.0 0.00 0.00 0.00 82 1020.9
20191021113518 51 0 0.0 0.0 0.00 0.00 0.00 82 1020.8
20191021113046 51 0 0.0 0.0 0.00 0.00 0.00 81 1020.8
20191021112519 51 0 0.0 0.0 0.00 0.00 0.00 82 1020.8
20191021112024 51 0 0.0 0.0 0.00 0.00 0.00 81 1020.7
20191021111526 51 0 0.0 0.0 0.00 0.00 0.00 81 1020.7
20191021111019 51 0 0.0 0.0 0.00 0.00 0.00 81 1020.7
20191021110519 51 0 0.0 0.0 0.00 0.00 0.00 82 1020.7
20191021110036 51 0 0.0 0.0 0.00 0.00 0.00 82 1020.6
20191021105531 51 0 0.0 0.0 0.00 0.00 0.00 82 1020.7
20191021105023 51 0 0.0 0.0 0.00 0.00 0.00 81 1020.7
20191021104611 51 0 0.0 0.0 0.00 0.00 0.00 81 1020.8
20191021104018 52 0 0.0 0.0 0.00 0.00 0.00 81 1020.8
20191021103523 52 0 0.0 0.0 0.00 0.00 0.00 82 1020.7
20191021103141 52 0 0.0 0.0 0.00 0.00 0.00 82 1020.7
20191021102524 52 0 0.0 0.0 0.00 0.00 0.00 82 1020.7
20191021102019 52 0 0.0 0.0 0.00 0.00 0.00 82 1020.8
20191021101530 52 0 0.0 2.0 0.00 0.00 0.00 81 1020.8
20191021101023 52 0 0.0 2.0 0.00 0.00 0.00 81 1020.7
20191021100520 52 0 0.0 1.0 0.00 0.00 0.00 82 1020.8
20191021100026 52 86 0.0 1.0 0.00 0.00 0.00 82 1020.8
20191021095531 52 0 0.0 0.0 0.00 0.00 0.00 82 1020.9
20191021095033 52 0 0.0 1.0 0.00 0.00 0.00 83 1020.9
20191021094603 52 0 0.0 1.0 0.00 0.00 0.00 82 1020.8
20191021094018 52 0 0.0 1.0 0.00 0.00 0.00 81 1020.7
20191021093524 52 0 0.0 1.0 0.00 0.00 0.00 81 1020.7
20191021093047 52 0 0.0 1.0 0.00 0.00 0.00 80 1020.7
20191021092520 52 0 0.0 1.0 0.00 0.00 0.00 80 1020.7
20191021092017 52 0 0.0 1.0 0.00 0.00 0.00 80 1020.8
20191021091528 52 86 0.0 1.0 0.00 0.00 0.00 80 1020.8
20191021091018 52 0 0.0 2.0 0.00 0.00 0.00 80 1020.8
20191021090526 52 0 0.0 2.0 0.00 0.00 0.00 79 1020.7
20191021090051 52 86 0.0 2.0 0.00 0.00 0.00 79 1020.8
20191021085526 53 0 0.0 2.0 0.00 0.00 0.00 79 1020.7
20191021085018 53 0 0.0 1.0 0.00 0.00 0.00 79 1020.8
20191021084523 53 0 0.0 1.0 0.00 0.00 0.00 80 1020.7
20191021084022 53 0 0.0 2.0 0.00 0.00 0.00 79 1020.6
20191021083517 53 0 0.0 2.0 0.00 0.00 0.00 80 1020.6
20191021083038 53 86 0.0 2.0 0.00 0.00 0.00 80 1020.6
20191021082530 53 86 0.0 3.0 0.00 0.00 0.00 79 1020.6
20191021082028 53 86 0.0 3.0 0.00 0.00 0.00 79 1020.7
20191021081544 53 86 1.0 2.0 0.00 0.00 0.00 78 1020.7
20191021081028 53 0 0.0 2.0 0.00 0.00 0.00 78 1020.5
20191021080526 53 74 1.0 3.0 0.00 0.00 0.00 78 1020.7
20191021080038 53 89 1.0 3.0 0.00 0.00 0.00 78 1020.7
20191021075523 53 82 0.0 2.0 0.00 0.00 0.00 78 1020.8
20191021075021 53 82 0.0 2.0 0.00 0.00 0.00 78 1020.7
20191021074540 53 82 0.0 2.0 0.00 0.00 0.00 78 1020.8
20191021074020 54 83 0.0 2.0 0.00 0.00 0.00 79 1020.8
20191021073518 54 84 0.0 2.0 0.00 0.00 0.00 79 1020.7
20191021073029 54 0 0.0 2.0 0.00 0.00 0.00 79 1020.7
20191021072521 54 81 0.0 2.0 0.00 0.00 0.00 78 1020.9
20191021072028 54 74 0.0 1.0 0.00 0.00 0.00 77 1021.1
20191021071523 54 0 0.0 1.0 0.00 0.00 0.00 77 1021.2
20191021071025 54 0 0.0 1.0 0.00 0.00 0.00 77 1021.0
20191021070524 54 0 0.0 1.0 0.00 0.00 0.00 77 1021.2
20191021070030 55 0 0.0 1.0 0.00 0.00 0.00 77 1021.2
20191021065525 55 74 0.0 1.0 0.00 0.00 0.00 77 1021.1
20191021065018 55 0 0.0 1.0 0.00 0.00 0.00 76 1021.3
20191021064526 55 0 0.0 1.0 0.00 0.00 0.00 76 1021.0
20191021064017 55 0 0.0 2.0 0.00 0.00 0.00 76 1021.0
20191021063519 55 0 0.0 2.0 0.00 0.00 0.00 75 1021.1
20191021063036 55 73 0.0 2.0 0.00 0.00 0.00 75 1021.1
20191021062529 55 0 0.0 1.0 0.00 0.00 0.00 75 1021.1
20191021062017 55 0 0.0 1.0 0.00 0.00 0.00 74 1021.1
20191021061559 55 0 0.0 2.0 0.00 0.00 0.00 74 1021.1
20191021061021 55 65 0.0 2.0 0.00 0.00 0.00 74 1021.1
20191021060517 55 65 0.0 3.0 0.00 0.00 0.00 73 1021.1
20191021060139 55 63 1.0 3.0 0.00 0.00 0.00 73 1021.1
20191021055520 56 74 1.0 2.0 0.00 0.00 0.00 73 1021.1
20191021055020 56 57 0.0 2.0 0.00 0.00 0.00 73 1020.9
20191021054558 56 0 0.0 2.0 0.00 0.00 0.00 73 1020.9
20191021054022 56 0 0.0 2.0 0.00 0.00 0.00 73 1020.9
20191021053519 56 11 0.0 1.0 0.00 0.00 0.00 73 1020.9
20191021053110 57 359 0.0 0.0 0.00 0.00 0.00 73 1020.8
20191021052520 57 0 0.0 1.0 0.00 0.00 0.00 74 1020.8
20191021052018 57 0 0.0 1.0 0.00 0.00 0.00 74 1020.7
20191021051543 57 359 0.0 1.0 0.00 0.00 0.00 73 1020.7
20191021051018 57 0 0.0 0.0 0.00 0.00 0.00 71 1020.7
20191021050530 57 0 0.0 1.0 0.00 0.00 0.00 72 1020.6
20191021050027 57 0 0.0 1.0 0.00 0.00 0.00 71 1020.6
20191021045518 58 0 0.0 1.0 0.00 0.00 0.00 71 1020.6
20191021045020 58 0 0.0 1.0 0.00 0.00 0.00 70 1020.6
20191021044539 58 0 0.0 2.0 0.00 0.00 0.00 70 1020.6
20191021044021 58 0 0.0 2.0 0.00 0.00 0.00 70 1020.6
20191021043519 58 0 0.0 1.0 0.00 0.00 0.00 71 1020.5
20191021043034 59 0 0.0 1.0 0.00 0.00 0.00 71 1020.6
20191021042517 59 0 0.0 2.0 0.00 0.00 0.00 70 1020.6
20191021042019 59 0 0.0 2.0 0.00 0.00 0.00 70 1020.6
20191021041611 60 298 0.0 1.0 0.00 0.00 0.00 70 1020.8
20191021041027 60 0 0.0 0.0 0.00 0.00 0.00 71 1020.7
20191021040518 60 0 0.0 0.0 0.00 0.00 0.00 71 1020.6
20191021040031 60 0 0.0 0.0 0.00 0.00 0.00 70 1020.7
20191021035517 61 0 0.0 0.0 0.00 0.00 0.00 70 1020.6
20191021035016 61 0 0.0 0.0 0.00 0.00 0.00 70 1020.6
20191021034520 60 0 0.0 0.0 0.00 0.00 0.00 69 1020.5
20191021034019 61 0 0.0 0.0 0.00 0.00 0.00 68 1020.3
20191021033517 60 0 0.0 0.0 0.00 0.00 0.00 68 1020.3
20191021033026 60 0 0.0 0.0 0.00 0.00 0.00 67 1020.2
20191021032519 61 0 0.0 0.0 0.00 0.00 0.00 66 1020.2
20191021032018 61 0 0.0 0.0 0.00 0.00 0.00 65 1020.1
20191021031529 61 0 0.0 1.0 0.00 0.00 0.00 64 1020.1
20191021031018 61 0 0.0 1.0 0.00 0.00 0.00 64 1020.0
20191021030518 61 0 0.0 0.0 0.00 0.00 0.00 63 1019.9
20191021030039 62 0 0.0 0.0 0.00 0.00 0.00 62 1019.9
20191021025522 62 0 0.0 0.0 0.00 0.00 0.00 62 1019.9
20191021025020 62 0 0.0 0.0 0.00 0.00 0.00 61 1019.7
20191021024537 62 0 0.0 0.0 0.00 0.00 0.00 61 1019.7
20191021024027 62 0 0.0 1.0 0.00 0.00 0.00 60 1019.6
20191021023518 62 0 0.0 1.0 0.00 0.00 0.00 59 1019.5
20191021023111 62 0 0.0 0.0 0.00 0.00 0.00 58 1019.4
20191021022521 62 0 0.0 0.0 0.00 0.00 0.00 57 1019.5
20191021022029 63 0 0.0 0.0 0.00 0.00 0.00 57 1019.5
20191021021525 63 0 0.0 0.0 0.00 0.00 0.00 56 1019.4
20191021021017 63 0 0.0 0.0 0.00 0.00 0.00 56 1019.4
20191021020518 63 0 0.0 0.0 0.00 0.00 0.00 54 1019.5
20191021020043 64 0 0.0 2.0 0.00 0.00 0.00 53 1019.6
20191021015523 64 0 0.0 2.0 0.00 0.00 0.00 53 1019.5
20191021015019 64 0 0.0 1.0 0.00 0.00 0.00 52 1019.5
20191021014527 64 0 0.0 2.0 0.00 0.00 0.00 50 1019.4
20191021014019 65 299 0.0 2.0 0.00 0.00 0.00 50 1019.5
20191021013519 65 298 0.0 2.0 0.00 0.00 0.00 49 1019.5
20191021013039 65 0 1.0 2.0 0.00 0.00 0.00 48 1019.4
20191021012524 65 0 1.0 4.0 0.00 0.00 0.00 46 1019.5
20191021012019 66 294 0.0 4.0 0.00 0.00 0.00 45 1019.5
20191021011659 67 307 0.0 4.0 0.00 0.00 0.00 44 1019.5
20191021011016 67 311 0.0 4.0 0.00 0.00 0.00 43 1019.5
20191021010521 67 341 1.0 4.0 0.00 0.00 0.00 42 1019.5
20191021010032 68 318 1.0 4.0 0.00 0.00 0.00 43 1019.5
20191021005520 69 304 1.0 4.0 0.00 0.00 0.00 42 1019.5
20191021005020 69 328 0.0 3.0 0.00 0.00 0.00 40 1019.5
20191021004524 69 316 1.0 3.0 0.00 0.00 0.00 39 1019.5
20191021004023 69 311 0.0 3.0 0.00 0.00 0.00 39 1019.5
20191021003520 69 296 1.0 3.0 0.00 0.00 0.00 38 1019.6
20191021003042 69 332 1.0 3.0 0.00 0.00 0.00 36 1019.5
20191021002525 70 326 1.0 3.0 0.00 0.00 0.00 35 1019.4
20191021002019 70 328 1.0 3.0 0.00 0.00 0.00 33 1019.3
20191021001543 70 328 1.0 3.0 0.00 0.00 0.00 33 1019.4
20191021001020 70 316 1.0 3.0 0.00 0.00 0.00 33 1019.4
20191021000517 71 347 1.0 3.0 0.00 0.00 0.00 33 1019.4
20191021000029 71 310 1.0 3.0 0.00 0.00 0.00 33 1019.4
20191020235519 71 332 0.0 3.0 0.00 0.00 0.00 32 1019.3
20191020235020 72 0 1.0 3.0 0.00 0.00 0.00 32 1019.3
20191020234534 72 292 1.0 2.0 0.00 0.00 0.00 32 1019.3
20191020234020 72 307 1.0 2.0 0.00 0.00 0.00 32 1019.4
20191020233520 73 305 0.0 3.0 0.00 0.00 0.00 32 1019.3
20191020233031 72 310 1.0 4.0 0.00 0.00 0.00 31 1019.3
20191020232520 72 348 1.0 4.0 0.00 0.00 0.00 32 1019.2
20191020232019 72 345 1.0 3.0 0.00 0.00 0.00 32 1019.3
20191020231540 72 336 1.0 3.0 0.00 0.00 0.00 32 1019.2
20191020231028 72 304 1.0 3.0 0.00 0.00 0.00 32 1019.2
20191020230519 73 323 1.0 3.0 0.00 0.00 0.00 31 1019.5
20191020230026 73 303 1.0 3.0 0.00 0.00 0.00 31 1019.4
20191020225519 73 335 1.0 3.0 0.00 0.00 0.00 32 1019.4
20191020225025 73 326 1.0 6.0 0.00 0.00 0.00 32 1019.5
20191020224544 73 296 2.0 6.0 0.00 0.00 0.00 33 1019.5
20191020224016 73 315 1.0 3.0 0.00 0.00 0.00 35 1019.6
20191020223524 73 314 1.0 3.0 0.00 0.00 0.00 36 1019.6
20191020223120 73 338 1.0 4.0 0.00 0.00 0.00 35 1019.6
20191020222517 73 317 1.0 4.0 0.00 0.00 0.00 34 1019.4
20191020222016 73 340 1.0 3.0 0.00 0.00 0.00 36 1019.6
20191020221526 73 335 1.0 3.0 0.00 0.00 0.00 37 1019.5
20191020221017 73 345 1.0 3.0 0.00 0.00 0.00 37 1019.5
20191020220526 73 335 1.0 3.0 0.00 0.00 0.00 38 1019.4
20191020220041 73 320 1.0 3.0 0.00 0.00 0.00 39 1019.5
20191020215522 73 325 1.0 3.0 0.00 0.00 0.00 41 1019.4
20191020215019 73 340 1.0 4.0 0.00 0.00 0.00 40 1019.6
20191020214616 73 329 1.0 8.0 0.00 0.00 0.00 40 1019.5
20191020214016 73 289 2.0 8.0 0.00 0.00 0.00 40 1019.5
20191020213523 73 336 1.0 6.0 0.00 0.00 0.00 41 1019.8
20191020213036 72 304 1.0 6.0 0.00 0.00 0.00 42 1019.8
20191020212518 72 307 1.0 3.0 0.00 0.00 0.00 42 1019.9
20191020212017 72 319 1.0 3.0 0.00 0.00 0.00 44 1019.9
20191020211520 72 311 1.0 3.0 0.00 0.00 0.00 45 1019.9
20191020211020 72 333 1.0 5.0 0.00 0.00 0.00 45 1019.9
20191020210520 71 293 1.0 6.0 0.00 0.00 0.00 46 1019.9
20191020210052 72 345 1.0 6.0 0.00 0.00 0.00 46 1020.0
20191020205519 71 258 2.0 6.0 0.00 0.00 0.00 45 1020.0
20191020205022 71 320 1.0 3.0 0.00 0.00 0.00 46 1020.1
20191020204551 71 319 1.0 4.0 0.00 0.00 0.00 46 1020.2
20191020204023 71 321 1.0 4.0 0.00 0.00 0.00 46 1020.2
20191020203519 71 311 2.0 4.0 0.00 0.00 0.00 46 1020.5
20191020203024 71 315 1.0 4.0 0.00 0.00 0.00 48 1020.6
20191020202518 70 254 1.0 4.0 0.00 0.00 0.00 49 1020.7
20191020202022 70 300 1.0 4.0 0.00 0.00 0.00 48 1020.6
20191020201550 71 0 1.0 3.0 0.00 0.00 0.00 49 1020.6
20191020201018 70 290 1.0 3.0 0.00 0.00 0.00 49 1020.7
20191020200519 70 321 0.0 3.0 0.00 0.00 0.00 50 1020.8
20191020200043 70 326 1.0 6.0 0.00 0.00 0.00 52 1020.8
20191020195527 70 297 2.0 6.0 0.00 0.00 0.00 52 1020.8
20191020195024 69 285 1.0 3.0 0.00 0.00 0.00 52 1020.9
20191020194605 69 0 1.0 3.0 0.00 0.00 0.00 54 1021.0
20191020194025 68 304 1.0 3.0 0.00 0.00 0.00 56 1021.0
20191020193516 68 293 0.0 2.0 0.00 0.00 0.00 55 1021.0
20191020193121 68 258 0.0 3.0 0.00 0.00 0.00 59 1021.0
20191020192522 68 268 1.0 3.0 0.00 0.00 0.00 59 1021.1
20191020192019 68 242 0.0 4.0 0.00 0.00 0.00 61 1021.1
20191020191523 67 250 1.0 5.0 0.00 0.00 0.00 62 1021.3
20191020191024 67 294 1.0 5.0 0.00 0.00 0.00 62 1021.3
20191020190526 67 270 1.0 3.0 0.00 0.00 0.00 64 1021.3
20191020190035 66 328 1.0 3.0 0.00 0.00 0.00 67 1021.4
20191020185516 65 323 0.0 3.0 0.00 0.00 0.00 67 1021.4
20191020185023 65 323 0.0 2.0 0.00 0.00 0.00 68 1021.3
20191020184529 65 319 1.0 4.0 0.00 0.00 0.00 68 1021.4
20191020184024 64 0 1.0 4.0 0.00 0.00 0.00 70 1021.5
20191020183518 64 325 1.0 4.0 0.00 0.00 0.00 70 1021.5
20191020183110 63 299 1.0 4.0 0.00 0.00 0.00 71 1021.5
20191020182529 63 252 1.0 3.0 0.00 0.00 0.00 71 1021.5
20191020182020 63 333 0.0 2.0 0.00 0.00 0.00 73 1021.5
20191020181529 63 316 1.0 3.0 0.00 0.00 0.00 73 1021.5
20191020181024 62 343 0.0 3.0 0.00 0.00 0.00 75 1021.5
20191020180521 62 259 0.0 3.0 0.00 0.00 0.00 76 1021.6
20191020180052 62 339 0.0 3.0 0.00 0.00 0.00 76 1021.6
20191020175519 61 0 0.0 2.0 0.00 0.00 0.00 78 1021.7
20191020175020 61 309 0.0 3.0 0.00 0.00 0.00 77 1021.5
20191020174555 60 0 0.0 3.0 0.00 0.00 0.00 80 1021.6
20191020174026 60 341 0.0 1.0 0.00 0.00 0.00 80 1021.6
20191020173519 59 0 0.0 2.0 0.00 0.00 0.00 82 1021.6
20191020173113 59 0 0.0 2.0 0.00 0.00 0.00 84 1021.6
20191020172525 58 0 0.0 2.0 0.00 0.00 0.00 84 1021.7
20191020172020 59 340 0.0 2.0 0.00 0.00 0.00 84 1021.7
20191020171550 58 0 0.0 2.0 0.00 0.00 0.00 85 1021.8
20191020171020 57 352 0.0 1.0 0.00 0.00 0.00 86 1021.6
20191020170523 57 0 0.0 1.0 0.00 0.00 0.00 86 1021.6
20191020170051 57 0 0.0 2.0 0.00 0.00 0.00 86 1021.6
20191020165521 57 0 0.0 2.0 0.00 0.00 0.00 87 1021.5
20191020165021 57 0 0.0 1.0 0.00 0.00 0.00 87 1021.5
20191020164538 57 0 0.0 1.0 0.00 0.00 0.00 88 1021.5
20191020164023 57 0 0.0 0.0 0.00 0.00 0.00 88 1021.4
20191020163527 56 0 0.0 1.0 0.00 0.00 0.00 89 1021.3
20191020163031 56 0 0.0 1.0 0.00 0.00 0.00 89 1021.4
20191020162519 56 0 0.0 2.0 0.00 0.00 0.00 89 1021.4
20191020162020 56 0 0.0 2.0 0.00 0.00 0.00 89 1021.2
20191020161534 56 0 0.0 2.0 0.00 0.00 0.00 90 1021.0
20191020161032 56 0 0.0 1.0 0.00 0.00 0.00 90 1021.1
20191020160520 55 184 0.0 1.0 0.00 0.00 0.00 90 1021.0
20191020160111 55 0 0.0 0.0 0.00 0.00 0.00 90 1020.9
20191020155528 55 0 0.0 1.0 0.00 0.00 0.00 91 1020.7
20191020155022 55 0 0.0 1.0 0.00 0.00 0.00 90 1020.7
20191020154522 55 195 0.0 1.0 0.00 0.00 0.00 91 1020.6
20191020154030 55 0 0.0 1.0 0.00 0.00 0.00 91 1020.6
20191020153527 55 0 0.0 0.0 0.00 0.00 0.00 91 1020.6
20191020153029 55 0 0.0 0.0 0.00 0.00 0.00 91 1020.5
20191020152520 55 0 0.0 0.0 0.00 0.00 0.00 91 1020.5
20191020152020 55 0 0.0 1.0 0.00 0.00 0.00 91 1020.4
20191020151526 55 0 0.0 1.0 0.00 0.00 0.00 91 1020.4
20191020151020 55 0 0.0 0.0 0.00 0.00 0.00 91 1020.4
20191020150519 55 0 0.0 0.0 0.00 0.00 0.00 91 1020.3
20191020150115 55 0 0.0 0.0 0.00 0.00 0.00 91 1020.2
20191020145520 55 0 0.0 0.0 0.00 0.00 0.00 91 1020.3
20191020145020 55 0 0.0 1.0 0.00 0.00 0.00 91 1020.3
20191020144705 55 0 0.0 1.0 0.00 0.00 0.00 91 1020.3
20191020144025 55 0 0.0 1.0 0.00 0.00 0.00 91 1020.3
20191020143519 55 0 0.0 0.0 0.00 0.00 0.00 91 1020.2
20191020143044 55 0 0.0 0.0 0.00 0.00 0.00 91 1020.2
20191020142521 55 0 0.0 0.0 0.00 0.00 0.00 91 1020.0
20191020142020 55 0 0.0 0.0 0.00 0.00 0.00 91 1020.1
20191020141609 55 0 0.0 0.0 0.00 0.00 0.00 91 1019.9
20191020141020 55 0 0.0 0.0 0.00 0.00 0.00 91 1019.8
20191020140524 55 0 0.0 0.0 0.00 0.00 0.00 91 1019.8
20191020140040 54 0 0.0 0.0 0.00 0.00 0.00 92 1019.9
20191020135520 54 0 0.0 0.0 0.00 0.00 0.00 91 1019.7
20191020135018 55 0 0.0 0.0 0.00 0.00 0.00 91 1019.7
20191020134552 55 0 0.0 0.0 0.00 0.00 0.00 91 1019.7
20191020134026 55 0 0.0 0.0 0.00 0.00 0.00 91 1019.7
20191020133523 55 0 0.0 0.0 0.00 0.00 0.00 90 1019.7
20191020133038 55 0 0.0 0.0 0.00 0.00 0.00 91 1019.8
20191020132520 54 0 0.0 1.0 0.00 0.00 0.00 91 1019.8
20191020132020 55 0 0.0 1.0 0.00 0.00 0.00 91 1019.7
20191020131538 55 0 0.0 1.0 0.00 0.00 0.00 90 1019.7
20191020131018 55 0 0.0 3.0 0.00 0.00 0.00 91 1019.7
20191020130527 55 0 1.0 3.0 0.00 0.00 0.00 90 1019.7
20191020130141 54 0 0.0 1.0 0.00 0.00 0.00 90 1019.7
20191020125522 54 0 0.0 0.0 0.00 0.00 0.00 90 1019.7
20191020125029 54 0 0.0 0.0 0.00 0.00 0.00 90 1019.7
20191020124547 54 0 0.0 0.0 0.00 0.00 0.00 90 1019.6
20191020124018 54 0 0.0 0.0 0.00 0.00 0.00 90 1019.6
20191020123520 54 0 0.0 0.0 0.00 0.00 0.00 90 1019.4
20191020123024 54 0 0.0 0.0 0.00 0.00 0.00 90 1019.4
20191020122523 54 0 0.0 0.0 0.00 0.00 0.00 90 1019.4
20191020122020 54 0 0.0 0.0 0.00 0.00 0.00 90 1019.4
20191020121540 54 0 0.0 0.0 0.00 0.00 0.00 90 1019.5